Retour au catalogue

STARLINK-37327

ActifCommunicationsSSO
NORAD 68736·PAYLOAD·🇺🇸 United States

Lancé Apr 15, 2026 depuis Vandenberg Space Force Base

Loading…

Prochains Passages (prochaines 24 heures)

TLE

FraisSource: CelesTrak SupGP

Époque: Sep 14, 2026, 21:17 UTC

1 68736C 26082J   26257.88729167  .00022843  00000+0  70957-3 0  2574
2 68736  97.2848 120.0764 0001770  90.6041 235.7681 15.33405740    10

Suivez STARLINK-37327 en temps réel avec AllMySat

Download on the App Store